Location: New Frontier Mobile Home Park
(32.8448°N, 116.9675°W)
Time: 23:17:17
(UTC+00:00)

USA 186 - Pass Details

Date: 14 July 2020
Orbit: 262 x 438 km, 96.9° (Epoch: 02 August)

Event Time Altitude Azimuth Distance (km) Brightness Sun altitude
Rises 03:21:11 0° 164° (SSE) 2,386 5.1 -5.2°
Reaches altitude 10° 03:23:14 10° 161° (SSE) 1,507 4.1 -5.6°
Maximum altitude 03:26:26 68° 79° (ENE) 446 1.7 -6.2°
Drops below altitude 10° 03:29:31 10° 355° (N) 1,444 5.0 -6.7°
Sets 03:31:27 0° 353° (N) 2,274 6.1 -7.1°
